SL-16 DEB, 22362

Orbit data source: Space-Track

SL-16 DEB, 22362 is space debris in LEO originally from a launch on Fri, 25 Dec 1992 UTC launched from the Tyuratam Missile And Space Complex (TTMTR). Debris objects in space refer to the collection of defunct objects orbiting the Earth. Examples of debris include non-operational satellites, rocket bodies, and fragments generated from explosions, collisions, or faulty payload assembly.

Loading next visibility...
Identifier
22362, 1992-093BB
Orbit
LEO
Country
Flag of CISCIS
Related business
Manufacturer
Unknown
Mission
Spacecraft
Bus & Motor
Unknown
Mass
Unknown
Launch date (UTC)
1992-12-25 (33 years ago)
Launch vehicle
Unknown
Launch site
Tyuratam Missile And Space Complex (TTMTR)
Object type
Payload
Rocket body
Debris
Shape & HBR
Unknown shape, 0.1 m
Radar Cross Section
Small (<0.1 m²)

Expand to show TLE details & history
Last TLE update: 1 day ago

TLE from 1 day ago
0 SL-16 DEB
1 22362U 92093BB  26132.22006772  .00000826  00000-0  62020-3 0  9997
2 22362  70.8922 182.4518 0186438 205.8749 215.1711 13.89522919676140
Epoch: 2026-05-12T05:16Z
TLE epoch observation values (Epoch: 2026-05-12T05:16:53.851Z)
Latitude
54.89147°
Longitude
-97.41383°
Altitude
1,051.051 km
Speed
7.275 km/s
True Right ascension
14h 07m 13s
True Declination
54° 44' 09"
Sunlit
Object was in daylight at epoch
Visualization orbit readout
Latitude
Unknown
Longitude
Unknown
Altitude
Unknown
Speed
Unknown
Apparent Right ascension
Unknown
Apparent Declination
Unknown
Sunlit
N/A
Visualization observer readout
Local Sidereal Time
19:33:54
Azimuth
Unknown
Elevation
Unknown
Doppler factor
Unknown
Orbital elements
Apogee altitude
1,064.482 km
Perigee altitude
792.044 km
Semi-major axis
7,306.4 km
Eccentricity
0.01864
Inclination
70.8922°
RAAN
182.4518°
Arg. of periapsis
205.8749°
True anomaly
213.96359°
Mean anomaly
215.1711°
Eccentric anomaly
214.56506°
Mean motion
3.47527 °/min
Orbital period
103.59 mins
BSTAR
0.0006202
Loading maneuver chart data...
Computing Atmospheric mass density...
Loading historical data...
Loading historical data...
Loading historical data...
Loading historical data...
Loading historical data...
Loading historical data...
Loading historical data...

Documentation

Showing up to 5 results
|